Wind_Speed
39 37 36 35 34 34 33 32 32 31 31 30 29 29 30 30 30 30 30 30 30 31 31 31 31 31 31 30 30 30 30 30 31 31 31 30 30 31 32 33 33 33 34
41 40 38 37 35 35 34 34 33 33 33 33 32 32 32 32 32 32 32 32 32 32 32 32 32 32 32 32 32 32 32 32 32 32 32 32 32 33 33 34 34 34 35
42 41 40 39 37 36 35 35 35 35 34 34 34 34 34 34 34 33 34 34 34 34 33 33 32 32 33 34 33 33 33 32 32 33 33 34 34 34 35 35 35 35 36
42 42 41 40 38 37 36 36 35 35 34 35 35 36 36 35 35 36 36 35 35 35 34 34 34 34 35 35 35 34 34 34 33 33 34 34 34 35 35 36 36 36 37
43 43 42 41 40 39 39 38 37 36 36 37 37 37 37 37 37 37 36 36 36 36 36 36 37 37 37 37 36 36 35 35 35 34 35 35 35 36 36 37 37 38 38
44 43 42 42 42 41 41 40 39 38 39 39 39 40 39 39 39 39 39 39 39 39 40 40 40 39 39 38 38 37 37 37 36 36 36 36 36 37 37 37 38 39 39
44 44 42 42 42 42 42 42 41 40 40 41 42 42 41 41 41 42 42 42 42 42 42 42 42 41 40 40 39 39 38 38 37 37 37 37 37 38 38 38 39 39 39
43 43 43 42 43 43 44 44 43 42 43 43 43 43 43 43 43 44 44 44 44 44 43 43 43 42 41 41 40 39 38 38 37 38 37 37 38 39 39 39 39 40 40
41 41 42 42 43 43 44 45 44 44 45 45 45 46 45 44 44 45 45 45 45 46 45 45 44 43 43 42 41 40 39 39 39 39 39 39 40 41 40 40 40 40 40
40 41 41 41 42 43 45 46 46 46 46 47 47 46 47 47 47 47 47 47 47 46 45 45 45 44 44 43 42 42 41 41 41 40 40 40 41 41 40 40 41 41 40
39 40 40 42 43 44 45 46 47 47 48 49 49 48 48 49 49 49 49 48 46 46 46 46 46 46 45 44 43 43 42 41 41 40 40 40 41 41 40 40 40 40 39
38 39 40 41 42 43 45 46 47 48 48 49 50 51 50 49 49 49 49 48 47 46 46 47 47 45 45 44 43 43 42 41 41 41 41 41 41 41 41 40 40 39 38
38 38 39 40 41 41 43 44 46 47 48 50 51 52 52 49 48 48 48 47 47 46 46 46 45 46 46 45 44 43 42 42 41 42 41 41 40 40 40 40 40 39 38
38 38 38 39 39 41 43 45 47 48 49 51 52 53 53 51 49 48 48 47 47 46 46 47 47 47 47 45 44 44 43 42 41 41 40 40 39 39 40 40 39 38 37
38 38 39 39 39 40 43 46 47 49 50 50 51 52 52 51 50 50 49 47 47 47 47 47 47 47 47 46 45 44 42 41 41 41 40 39 39 40 39 38 38 37 36
38 40 40 41 42 43 44 46 47 49 49 49 50 51 50 50 50 50 49 49 49 50 48 48 47 46 46 45 44 42 41 41 41 40 40 39 39 39 38 37 36 35 34
40 40 41 42 43 46 48 49 49 49 48 48 48 49 48 47 49 49 50 50 49 48 47 47 47 46 45 43 42 41 41 40 40 40 39 39 38 38 36 36 35 33 32
41 43 44 44 45 46 47 48 48 48 48 48 48 48 48 48 49 49 49 49 48 47 46 44 44 43 43 41 41 41 40 39 39 38 39 38 37 36 35 34 33 32 31
39 41 43 45 45 45 45 46 47 49 49 48 47 46 46 46 47 46 45 45 44 44 43 42 41 40 40 41 41 40 40 40 39 38 37 36 36 34 33 32 32 31 30
37 39 41 43 44 44 45 46 46 46 47 46 47 47 46 45 44 43 43 42 42 42 41 40 40 40 41 41 41 41 40 39 37 37 36 35 34 33 32 32 31 30 29
36 37 39 41 43 43 44 45 45 45 46 47 47 47 45 43 42 41 40 41 41 40 39 39 39 40 41 40 39 38 37 35 36 35 35 34 33 32 32 31 30 29 27
36 37 38 39 41 43 44 45 46 46 45 44 44 43 43 42 41 40 40 39 39 38 39 39 39 39 39 39 39 36 35 35 35 34 34 33 33 32 31 30 29 28 27
36 37 37 38 39 39 40 41 42 43 42 40 41 40 40 40 39 39 39 38 38 39 39 38 37 37 37 37 37 36 35 35 34 34 33 33 32 31 30 29 28 27 27
35 35 36 37 38 38 38 38 38 38 38 38 37 37 37 37 38 37 38 38 36 37 36 36 36 36 36 36 36 36 35 35 34 34 33 32 31 30 29 28 27 27 26
32 34 35 36 37 37 38 37 36 37 36 36 35 35 35 34 35 36 36 36 36 37 36 35 35 36 36 35 34 34 33 34 33 33 32 31 29 29 28 28 27 26 26
32 32 34 34 34 35 35 35 36 36 35 34 34 35 35 35 35 36 36 35 36 36 36 36 35 35 35 34 33 33 33 33 32 31 31 30 29 29 28 27 27 26 26
Wind_Direction
248 250 252 254 256 258 260 261 261 262 264 265 266 268 268 269 271 272 273 274 276 279 280 281 283 286 288 290 292 294 296 297 299 300 302 302 303 304 305 307 307 308 309
247 249 251 253 255 257 258 259 261 262 264 265 266 267 269 270 271 271 272 273 275 278 279 281 282 284 286 288 290 292 294 295 297 298 299 300 302 303 302 304 305 306 307
246 248 250 252 254 256 258 260 261 263 264 265 266 267 267 269 271 272 273 274 276 278 279 280 282 283 285 287 288 290 292 293 295 296 298 300 300 300 300 301 302 303 305
245 248 250 252 253 255 257 259 260 262 265 266 267 268 267 269 270 272 273 275 276 277 278 280 281 283 285 286 287 288 290 292 294 294 296 297 298 298 299 300 301 302 304
245 248 249 251 253 255 257 259 260 262 265 265 266 267 268 269 270 272 274 274 276 277 278 279 281 283 285 286 286 288 288 291 292 292 293 294 296 296 297 299 300 301 302
244 247 249 251 252 254 256 257 259 263 264 264 265 267 268 269 271 272 273 275 276 277 278 279 280 281 282 284 285 286 288 289 290 291 291 293 294 295 296 298 299 300 301
244 246 248 250 251 253 255 256 259 262 264 265 266 267 268 270 271 273 275 276 276 277 278 279 279 279 280 282 282 284 286 287 288 288 290 291 292 294 294 296 298 299 299
245 246 248 250 253 254 255 257 259 261 263 265 266 268 269 270 271 274 275 275 276 276 277 277 277 277 278 279 280 282 284 285 285 287 289 291 292 293 294 295 296 297 297
244 247 250 253 255 257 257 258 259 261 263 264 267 269 270 271 271 272 272 274 274 274 275 275 275 275 276 277 279 280 282 283 284 287 288 289 291 293 294 295 295 295 295
246 249 252 254 257 259 259 260 261 261 263 265 268 269 271 272 273 272 272 273 273 274 274 273 273 275 276 276 277 278 280 282 283 285 287 287 289 291 292 293 293 293 294
247 250 252 256 260 262 262 263 264 264 266 267 268 270 272 274 274 273 273 271 271 272 272 271 272 274 275 275 275 277 279 281 282 284 286 287 289 290 290 291 291 291 292
248 252 256 257 260 263 265 266 265 265 267 268 268 269 271 273 273 273 272 270 270 271 271 270 271 271 272 274 275 276 277 279 281 283 284 286 288 289 288 289 290 289 290
250 254 258 260 262 265 266 266 266 267 268 269 268 268 270 271 271 270 269 269 270 270 270 270 269 270 271 273 274 275 276 277 279 282 283 285 287 287 287 288 288 288 288
255 258 261 262 263 265 266 267 266 267 268 269 269 269 270 270 269 268 268 268 269 269 270 270 270 270 270 272 272 273 275 276 278 282 283 283 284 285 286 287 287 287 287
258 259 261 262 264 266 267 267 268 268 270 270 270 271 271 269 269 268 268 268 268 269 270 270 270 270 270 270 271 273 275 277 279 281 281 282 283 284 286 286 286 286 286
261 261 262 265 267 269 270 270 269 269 270 270 271 271 271 269 270 269 267 267 267 269 269 269 268 268 268 269 271 271 274 275 278 278 280 281 282 283 284 285 285 285 285
262 265 267 269 271 271 271 270 270 270 271 271 272 271 271 271 271 270 267 266 267 267 267 268 267 267 267 268 268 268 272 274 276 276 278 279 281 282 283 284 284 284 284
265 267 270 271 273 273 271 269 270 271 272 273 273 272 271 270 270 270 268 267 266 266 267 267 267 267 267 267 268 268 271 273 274 275 276 278 280 281 282 283 283 282 281
268 270 273 273 273 272 271 270 271 271 271 272 271 271 271 270 270 270 268 266 265 265 265 267 267 266 267 267 268 269 270 271 272 274 276 278 279 279 281 282 280 280 279
272 273 274 274 274 273 272 271 272 271 270 270 270 270 270 270 269 268 264 263 265 265 266 265 264 266 266 268 268 269 269 271 271 273 275 276 277 278 280 279 278 278 278
277 278 278 277 275 276 275 273 273 272 272 271 270 269 268 266 266 264 263 263 263 263 264 262 263 265 265 267 267 268 268 270 271 273 274 275 275 277 278 277 277 276 275
280 282 282 281 280 278 277 276 275 274 275 273 271 269 266 265 264 264 264 263 262 262 262 263 264 265 266 266 265 267 267 269 271 272 273 274 274 276 276 275 274 274 273
283 283 284 284 282 281 279 277 275 274 275 274 272 269 265 263 262 262 261 260 261 261 262 262 263 263 263 264 264 266 267 269 269 270 271 272 272 273 274 273 272 271 270
285 286 286 286 283 282 280 279 277 277 277 274 272 271 267 264 261 260 260 261 261 260 261 262 261 262 262 263 264 265 265 267 267 269 270 270 270 271 270 270 270 269 267
289 288 288 287 285 283 281 279 278 278 277 274 271 268 265 262 261 260 260 259 259 260 262 262 262 262 261 262 264 264 265 266 267 269 268 268 268 269 268 268 267 265 264
291 290 290 290 289 285 281 279 278 276 275 272 269 265 263 260 260 260 258 259 259 260 261 261 260 260 260 261 262 263 264 265 266 266 266 266 266 267 266 266 265 263 261
Height
5828 5830 5832 5834 5835 5836 5837 5838 5838 5839 5839 5839 5839 5839 5839 5839 5839 5838 5838 5837 5836 5835 5834 5833 5831 5830 5828 5827 5825 5823 5821 5819 5817 5814 5812 5810 5807 5805 5802 5799 5796 5792 5789
5820 5823 5825 5827 5828 5829 5830 5831 5832 5832 5833 5833 5833 5833 5833 5833 5832 5832 5831 5831 5830 5829 5828 5826 5825 5824 5822 5821 5819 5817 5815 5813 5811 5809 5806 5804 5801 5799 5796 5793 5790 5786 5783
5812 5815 5817 5819 5821 5822 5823 5824 5825 5826 5826 5826 5826 5826 5826 5826 5826 5825 5824 5824 5823 5822 5821 5819 5818 5817 5816 5814 5812 5811 5809 5807 5805 5803 5800 5798 5795 5792 5789 5786 5783 5780 5777
5804 5807 5810 5812 5813 5814 5815 5817 5818 5818 5819 5819 5819 5819 5819 5818 5818 5818 5817 5816 5815 5814 5813 5812 5811 5810 5808 5807 5805 5804 5802 5800 5798 5795 5793 5791 5788 5785 5782 5779 5776 5773 5770
5796 5799 5801 5803 5805 5806 5807 5809 5810 5810 5811 5811 5811 5811 5811 5811 5810 5810 5809 5808 5807 5807 5806 5805 5803 5802 5801 5799 5798 5796 5794 5792 5790 5788 5786 5784 5781 5778 5775 5772 5769 5766 5762
5787 5790 5793 5794 5796 5797 5799 5800 5801 5802 5802 5802 5802 5802 5802 5802 5802 5801 5801 5800 5799 5798 5797 5796 5795 5793 5792 5791 5790 5788 5786 5784 5782 5780 5778 5776 5773 5770 5768 5765 5761 5758 5755
5778 5781 5783 5785 5787 5789 5790 5791 5791 5792 5793 5793 5793 5793 5793 5793 5793 5792 5792 5791 5790 5789 5788 5787 5785 5784 5783 5782 5780 5779 5777 5776 5774 5772 5769 5767 5765 5762 5759 5757 5754 5750 5747
5769 5772 5774 5776 5778 5779 5780 5781 5782 5782 5783 5783 5783 5782 5783 5784 5784 5783 5782 5781 5780 5779 5778 5776 5775 5774 5773 5772 5771 5769 5768 5766 5765 5763 5761 5759 5756 5754 5751 5748 5745 5742 5739
5761 5763 5765 5767 5768 5769 5771 5771 5772 5772 5773 5773 5772 5772 5771 5772 5772 5773 5771 5770 5768 5767 5767 5766 5765 5763 5762 5762 5761 5760 5758 5757 5755 5753 5751 5749 5747 5744 5742 5739 5736 5733 5730
5753 5755 5756 5757 5759 5760 5760 5761 5761 5761 5761 5762 5762 5761 5760 5759 5758 5759 5759 5758 5756 5755 5754 5754 5753 5752 5752 5751 5750 5749 5748 5747 5745 5743 5741 5739 5737 5735 5732 5729 5726 5724 5721
5743 5745 5746 5747 5748 5749 5750 5750 5750 5750 5750 5750 5750 5749 5748 5747 5745 5744 5744 5744 5743 5743 5742 5742 5741 5741 5741 5740 5740 5739 5738 5736 5735 5733 5731 5729 5727 5725 5722 5720 5717 5714 5711
5734 5735 5736 5737 5738 5738 5739 5738 5738 5738 5738 5737 5736 5736 5735 5734 5733 5731 5731 5731 5731 5731 5730 5730 5729 5729 5729 5729 5728 5728 5727 5725 5724 5722 5720 5719 5717 5714 5712 5710 5707 5705 5702
5725 5726 5727 5728 5728 5728 5727 5727 5726 5726 5725 5724 5723 5723 5722 5721 5720 5719 5718 5718 5718 5718 5718 5717 5717 5717 5717 5717 5717 5716 5715 5714 5713 5712 5710 5708 5706 5704 5702 5700 5698 5695 5693
5716 5717 5717 5718 5718 5717 5716 5715 5715 5714 5713 5711 5710 5709 5708 5708 5707 5706 5706 5705 5704 5705 5705 5705 5705 5705 5705 5705 5705 5705 5704 5703 5702 5701 5699 5698 5696 5694 5692 5690 5688 5686 5684
5706 5706 5707 5707 5706 5706 5705 5703 5702 5701 5699 5698 5697 5696 5695 5694 5694 5693 5693 5692 5691 5691 5692 5692 5692 5692 5692 5692 5692 5693 5692 5692 5691 5690 5689 5687 5686 5684 5683 5681 5679 5677 5676
5695 5695 5696 5696 5695 5693 5692 5691 5689 5688 5686 5685 5683 5682 5681 5681 5680 5679 5679 5678 5678 5677 5677 5678 5679 5679 5679 5680 5680 5681 5681 5681 5680 5679 5678 5677 5676 5674 5673 5672 5670 5669 5667
5684 5684 5684 5683 5682 5681 5679 5678 5677 5675 5673 5672 5670 5669 5668 5667 5666 5665 5664 5664 5663 5663 5664 5665 5665 5666 5667 5668 5668 5669 5670 5670 5669 5669 5668 5667 5666 5665 5663 5662 5661 5660 5659
5672 5672 5671 5670 5669 5667 5666 5665 5664 5662 5660 5659 5658 5656 5655 5654 5653 5651 5650 5650 5650 5650 5651 5651 5652 5654 5655 5656 5657 5658 5658 5659 5658 5658 5657 5657 5656 5655 5654 5653 5652 5652 5651
5659 5659 5658 5657 5655 5654 5652 5651 5650 5649 5648 5646 5645 5644 5642 5641 5640 5638 5637 5637 5637 5638 5639 5640 5642 5643 5644 5645 5646 5647 5648 5648 5648 5648 5647 5647 5646 5646 5645 5645 5644 5643 5643
5647 5646 5645 5644 5642 5640 5639 5637 5636 5635 5634 5633 5632 5631 5630 5628 5627 5626 5625 5625 5626 5627 5628 5629 5630 5632 5633 5634 5635 5636 5637 5637 5637 5638 5637 5637 5637 5637 5637 5636 5636 5636 5635
5636 5635 5633 5630 5628 5627 5625 5623 5622 5621 5620 5619 5618 5617 5616 5616 5615 5614 5614 5615 5615 5616 5617 5618 5619 5621 5622 5623 5625 5625 5626 5627 5627 5628 5628 5628 5628 5628 5628 5628 5628 5627 5627
5625 5623 5620 5618 5616 5614 5611 5609 5608 5607 5606 5605 5604 5604 5603 5603 5603 5603 5603 5604 5605 5606 5607 5608 5609 5611 5612 5613 5614 5615 5616 5617 5618 5619 5618 5619 5619 5619 5619 5620 5619 5620 5620
5613 5610 5607 5605 5603 5601 5598 5596 5594 5593 5592 5592 5591 5591 5591 5591 5592 5592 5593 5594 5595 5596 5597 5598 5599 5601 5602 5604 5605 5606 5607 5608 5608 5609 5609 5610 5610 5610 5611 5611 5611 5612 5612
5601 5599 5597 5594 5591 5589 5586 5584 5582 5580 5580 5579 5579 5579 5579 5580 5581 5582 5584 5585 5585 5586 5588 5589 5591 5592 5593 5594 5595 5597 5597 5598 5599 5600 5600 5601 5601 5602 5602 5603 5603 5604 5604
5591 5589 5586 5583 5580 5577 5574 5572 5570 5569 5569 5568 5568 5568 5568 5570 5571 5573 5574 5575 5576 5578 5578 5580 5581 5582 5583 5585 5586 5587 5588 5589 5590 5591 5591 5592 5592 5593 5593 5594 5595 5596 5597
5582 5579 5576 5572 5568 5565 5563 5561 5560 5559 5559 5558 5558 5558 5559 5560 5561 5563 5564 5566 5567 5569 5570 5571 5572 5573 5574 5575 5576 5578 5579 5580 5580 5582 5582 5583 5584 5585 5585 5586 5587 5588 5589